FENGYUN 1C DEB, 30860

Orbit data source: Space-Track

FENGYUN 1C DEB, 30860 is space debris in SSO originally from a launch on Mon, 10 May 1999 UTC launched from the Taiyaun Space Center, China (TSC). Fengyun 1C debris stems from the Chinese weather satellite Fengyun-1C, which was intentionally destroyed by a Chinese anti-satellite missile in 2007. This event dramatically increased the amount of space debris, with thousands of trackable fragments posing hazards to satellites and human spaceflight. The Fengyun 1C debris cloud has become a focal point in discussions about space sustainability and the need for international regulations to prevent the creation of new debris.

Loading next visibility...
Identifier
30860, 1999-025AWW
Orbit
SSO
Country
Flag of CNCN / PRC
Related business
Manufacturer
Unknown
Mission
Spacecraft
Bus & Motor
Unknown
Mass
Unknown
Launch date (UTC)
1999-05-10 (27 years ago)
Launch vehicle
Unknown
Launch site
Taiyaun Space Center, China (TSC)
Object type
Payload
Rocket body
Debris
Shape & HBR
Unknown shape, 0.1 m
Radar Cross Section
Medium (>0.1 m² and <1 m²)

Expand to show TLE details & history
Last TLE update: 21 hours ago

TLE from 21 hours ago
0 FENGYUN 1C DEB
1 30860U 99025AWW 26175.93061607  .00002739  00000-0  11414-2 0  9999
2 30860  98.8941 257.4126 0036579 349.6360  10.4061 14.26765787992843
Epoch: 2026-06-24T22:20Z
TLE epoch observation values (Epoch: 2026-06-24T22:20:05.228Z)
Latitude
-0.00008°
Longitude
9.31007°
Altitude
779.643 km
Speed
7.478 km/s
True Right ascension
17h 09m 39s
True Declination
0° 00' 00"
Sunlit
Object was in full shadow at epoch
Visualization orbit readout
Latitude
Unknown
Longitude
Unknown
Altitude
Unknown
Speed
Unknown
Apparent Right ascension
Unknown
Apparent Declination
Unknown
Sunlit
N/A
Visualization observer readout
Local Sidereal Time
06:25:58
Azimuth
Unknown
Elevation
Unknown
Doppler factor
Unknown
Orbital elements
Apogee altitude
825.976 km
Perigee altitude
773.464 km
Semi-major axis
7,177.857 km
Eccentricity
0.00366
Inclination
98.8941°
RAAN
257.4126°
Arg. of periapsis
349.636°
True anomaly
10.48215°
Mean anomaly
10.4061°
Eccentric anomaly
10.44409°
Mean motion
3.56904 °/min
Orbital period
100.87 mins
BSTAR
0.0011414
Loading maneuver chart data...
Computing Atmospheric mass density...

Documentation

Showing up to 5 results
|